[[{"header":{"parameterUnit":"m.s-1","parameterCategory":1,"la1":30.2991,"la2":30.254,"lo1":-89.0895,"lo2":-89.0444,"dy":0.0017,"dx":0.0017,"nx":28,"ny":28,"refTime":"2025-11-07T03:00:00:Z","depth":0,"parameterNumber":2,"parameterNumberName":"U-component_of_WINDS"},"data":[0,0,0,0,0,0,0,0,0,0,0,0,0,0,0,0,0,0,0,0,0,0,0,0,0,0,0,0,0,0,0,0,0,0,0,0,0,0,0,0,0,0,0,0,0,0,0,0,0,0,0,0,0,0,0,0,0,0,1.4878,1.4879,0,1.4893,1.4893,1.4893,1.4864,1.4863,1.4862,1.4861,1.4877,1.4878,1.488,0,0,0,0,0,0,0,0,0,0,0,0,0,1.4828,1.4829,1.4878,1.4879,1.4879,1.4893,1.4893,1.4893,1.4864,1.4863,1.4862,1.4861,1.4877,1.4878,1.488,0,0,0,0,0,0,0,0,0,0,0,0,0,1.4847,1.4829,1.4878,1.4866,1.4865,1.4893,1.4893,1.4893,1.4864,1.4863,1.4861,1.486,1.4876,1.4878,1.488,1.4921,0,0,1.4886,1.4887,0,0,0,0,0,0,0,0,1.4846,1.4849,1.4868,1.4867,1.4866,1.4875,1.4881,1.4903,1.4865,1.4865,1.4861,1.4859,1.4878,1.4879,1.4885,1.4922,1.4923,1.4886,1.4887,1.4888,1.4889,0,0,0,0,0,0,0,1.4845,1.4848,1.4884,1.4868,1.4867,1.486,1.4861,1.4885,1.4879,1.4864,1.4862,1.4864,1.4877,1.4883,1.4885,1.4923,1.4886,1.4888,1.4889,1.489,1.4996,1.4998,0,0,0,0,0,0,1.4845,1.4847,1.4884,1.4885,1.4852,1.4862,1.4864,1.4874,1.4879,1.4878,1.4866,1.4863,1.4881,1.4883,1.4886,1.4936,1.4888,1.489,1.4891,1.4995,1.4997,1.4998,0,0,0,0,0,0,1.4844,1.4848,1.4883,1.4865,1.4869,1.4865,1.4876,1.4875,1.4881,1.488,1.4879,1.4873,1.488,1.4883,1.4913,1.4936,1.4891,1.4893,1.4993,1.4995,1.4997,1.5035,0,0,0,0,0,0,1.4842,1.4848,1.4863,1.4866,1.487,1.4909,1.4878,1.4876,1.4885,1.4881,1.4887,1.4886,1.4879,1.491,1.4915,1.4938,1.4894,1.4991,1.4994,1.4997,1.5032,1.5039,1.5044,0,0,0,0,0,1.484,1.4873,1.4864,1.4868,1.4889,1.4911,1.4913,1.4904,1.4886,1.4902,1.4901,1.4886,1.4933,1.4914,1.4919,1.4942,1.4989,1.4993,1.4996,1.5029,1.5037,1.5044,0,0,0,0,0,0,1.4872,1.4873,1.4863,1.4897,1.4904,1.4906,1.4925,1.4913,1.4925,1.4922,1.491,1.4912,1.4944,1.4946,1.4925,1.4984,1.4958,1.4963,1.4981,1.4989,1.4995,1.4994,1.4896,0,0,0,0,0,1.4883,1.49,1.49,1.493,1.4934,1.4929,1.4938,1.4931,1.4938,1.4941,1.4942,1.495,1.4967,1.4978,1.4993,1.5032,1.5034,1.5051,1.5057,1.5063,1.5067,1.509,1.5098,1.501,1.501,1.501,0,0,1.4906,1.4908,1.492,1.4937,1.4941,1.496,1.4932,1.4953,1.4967,1.4944,1.4972,1.4974,1.4982,1.5018,1.5033,1.502,1.5092,1.5067,1.5071,1.5073,1.5094,1.5102,1.511,1.5013,1.5012,1.5012,0,0,1.4957,1.496,1.4986,1.4992,1.5,1.4996,1.5003,1.5007,1.5007,1.5035,1.5019,1.5036,1.5065,1.5072,1.5079,1.5136,1.5122,1.5141,1.5173,1.5196,1.5203,1.5209,1.523,1.5237,1.5145,1.5145,1.5145,0,1.4985,1.5012,1.5001,1.5024,1.5033,1.5013,1.504,1.5046,1.5058,1.5065,1.5051,1.5087,1.5091,1.5129,1.5143,1.5149,1.5157,1.514,1.5202,1.5208,1.5214,1.5234,1.5242,1.5148,1.5147,1.5147,1.5147,0,1.5046,1.5065,1.5086,1.5098,1.5109,1.5134,1.5128,1.5141,1.5133,1.5131,1.5162,1.5166,1.5183,1.5191,1.5183,1.5228,1.522,1.5204,1.5178,1.5225,1.5243,1.5251,1.5151,1.515,1.5149,1.5149,0,0,1.5116,1.5124,1.5132,1.5138,1.5146,1.5161,1.5186,1.5202,1.5214,1.5223,1.5245,1.527,1.5256,1.5264,1.5258,1.5277,1.5323,1.5259,1.5259,1.5272,1.5374,1.5387,1.5396,1.5314,1.5316,1.5317,1.5374,0,1.5168,1.521,1.5202,1.5243,1.5262,1.5245,1.5267,1.5274,1.5274,1.5291,1.5291,1.531,1.5289,1.5294,1.5313,1.5313,1.5344,1.5309,1.5335,1.5336,1.5334,1.5405,1.5418,1.5471,1.5381,1.5382,1.5383,0,1.5233,1.5246,1.5289,1.5296,1.5303,1.5323,1.5338,1.5354,1.5363,1.5362,1.5372,1.5362,1.5388,1.5362,1.5398,1.5375,1.5385,1.5388,1.539,1.5392,1.5363,1.541,1.5488,1.5496,1.5395,1.5394,1.5393,0,1.5282,1.531,1.5339,1.5345,1.5353,1.5368,1.5372,1.538,1.5391,1.5404,1.5411,1.5428,1.5437,1.5451,1.5446,1.5427,1.5484,1.5457,1.5484,1.5485,1.5497,1.5496,1.5578,1.5503,1.5503,1.5503,1.5502,0,1.534,1.5368,1.5362,1.538,1.5411,1.5402,1.5433,1.5435,1.5443,1.5462,1.5448,1.5467,1.546,1.5478,1.5475,1.5506,1.551,1.5511,1.551,1.5512,1.5512,1.5519,1.5515,1.5505,1.5504,1.5504,1.5504,0,1.5399,1.5396,1.5428,1.5433,1.5436,1.5458,1.5463,1.5481,1.5481,1.5506,1.5511,1.551,1.5532,1.5529,1.5552,1.555,1.559,1.5584,1.5586,1.5585,1.5613,1.5611,1.5703,1.5715,1.5631,1.5632,1.5633,0,1.5437,1.5458,1.5466,1.5478,1.5484,1.5503,1.5514,1.5507,1.552,1.5533,1.555,1.557,1.5586,1.5621,1.5623,1.5642,1.5637,1.5668,1.5639,1.5642,1.5638,1.5637,1.564,1.5673,1.5674,1.5675,1.5675,0,1.5505,1.5503,1.5519,1.5536,1.555,1.5563,1.5574,1.5585,1.5579,1.5594,1.5616,1.5628,1.5653,1.5674,1.5692,1.5697,1.5686,1.5684,1.5692,1.5695,1.5696,1.5697,1.5602,1.5682,1.5682,1.5681,1.5681,1.568,1.5555,1.5573,1.5582,1.5602,1.561,1.5621,1.5639,1.5641,1.5659,1.5679,1.5674,1.5699,1.571,1.5732,1.574,1.576,1.5749,1.5759,1.5762,1.5765,1.5769,1.5693,1.5763,1.5763,1.5763,1.5763,1.5763,0,1.5622,1.5628,1.5646,1.5663,1.5679,1.5667,1.568,1.5694,1.5716,1.5727,1.5743,1.5769,1.579,1.5794,1.5814,1.583,1.5825,1.5835,1.5834,1.5836,1.5777,1.5769,1.5839,1.5839,1.5839,1.5839,1.5839,1.5839,1.5659,1.569,1.569,1.5725,1.5731,1.5755,1.5764,1.5775,1.5784,1.5813,1.583,1.5833,1.5842,1.5863,1.5882,1.5883,1.5891,1.5903,1.5902,1.5848,1.584,1.5833,1.5825,1.5905,1.5905,1.5959,1.596,1.596]},{"header":{"parameterUnit":"m.s-1","parameterCategory":1,"la1":30.2991,"la2":30.254,"lo1":-89.0895,"lo2":-89.0444,"dy":0.0017,"dx":0.0017,"nx":28,"ny":28,"refTime":"2025-11-07T03:00:00:Z","depth":0,"parameterNumber":3,"parameterNumberName":"V-component_of_WINDS"},"data":[0,0,0,0,0,0,0,0,0,0,0,0,0,0,0,0,0,0,0,0,0,0,0,0,0,0,0,0,0,0,0,0,0,0,0,0,0,0,0,0,0,0,0,0,0,0,0,0,0,0,0,0,0,0,0,0,0,0,2.4057,2.4056,0,2.4009,2.4008,2.4008,2.3958,2.3958,2.3957,2.3956,2.3904,2.3903,2.3902,0,0,0,0,0,0,0,0,0,0,0,0,0,2.4104,2.4103,2.4057,2.4056,2.4056,2.4009,2.4008,2.4008,2.3958,2.3958,2.3957,2.3956,2.3904,2.3903,2.3902,0,0,0,0,0,0,0,0,0,0,0,0,0,2.4073,2.4103,2.4057,2.4026,2.4022,2.4009,2.4008,2.4007,2.3959,2.3958,2.3957,2.3956,2.3904,2.3903,2.3902,2.3915,0,0,2.3899,2.3898,0,0,0,0,0,0,0,0,2.4074,2.4071,2.4031,2.4028,2.4024,2.3989,2.4006,2.3976,2.3959,2.3983,2.3956,2.3955,2.3933,2.3929,2.3922,2.3913,2.391,2.3899,2.3898,2.3897,2.3897,0,0,0,0,0,0,0,2.4077,2.4073,2.4038,2.403,2.4026,2.4013,2.4008,2.4,2.3964,2.398,2.3977,2.3972,2.3931,2.3923,2.3921,2.391,2.3899,2.3898,2.3897,2.3896,2.3909,2.391,0,0,0,0,0,0,2.4084,2.4075,2.4039,2.4036,2.4047,2.4013,2.4007,2.4001,2.3964,2.3957,2.3973,2.397,2.3926,2.3922,2.3919,2.3932,2.3897,2.3896,2.3896,2.3908,2.3909,2.391,0,0,0,0,0,0,2.4085,2.4081,2.4041,2.4055,2.4048,2.4013,2.4007,2.4,2.3993,2.3958,2.3951,2.3972,2.3925,2.392,2.3917,2.3929,2.3896,2.3895,2.3907,2.3908,2.391,2.3958,0,0,0,0,0,0,2.4087,2.4082,2.4087,2.4055,2.4048,2.4041,2.4008,2.4,2.3992,2.3987,2.3956,2.3949,2.3924,2.3919,2.3916,2.3927,2.3894,2.3906,2.3908,2.3909,2.3955,2.3961,2.3966,0,0,0,0,0,2.4089,2.4101,2.4087,2.4083,2.4054,2.4042,2.4038,2.4009,2.3993,2.3997,2.3975,2.395,2.3929,2.3919,2.3915,2.3926,2.3905,2.3907,2.3909,2.3953,2.396,2.3966,0,0,0,0,0,0,2.4134,2.4097,2.4081,2.4084,2.4067,2.4033,2.4038,2.4017,2.4003,2.3999,2.3963,2.3957,2.3958,2.3941,2.3931,2.3937,2.3913,2.3915,2.3948,2.3954,2.396,2.3963,2.3893,0,0,0,0,0,2.4145,2.4139,2.4106,2.4112,2.4105,2.4073,2.4067,2.4046,2.4027,2.4019,2.3996,2.3977,2.3966,2.3959,2.3947,2.3953,2.3945,2.3959,2.3964,2.3969,2.3971,2.3973,2.3979,2.3918,2.3918,2.3918,0,0,2.4166,2.4145,2.4143,2.4121,2.4105,2.41,2.4067,2.4062,2.4058,2.4017,2.4013,2.3996,2.3973,2.3974,2.3974,2.3961,2.3986,2.3972,2.3976,2.3975,2.3976,2.3982,2.3987,2.392,2.3919,2.3919,0,0,2.4202,2.4186,2.4189,2.4175,2.4152,2.4131,2.4132,2.4103,2.409,2.4086,2.4056,2.405,2.4031,2.4016,2.4006,2.4038,2.4015,2.4035,2.4064,2.4067,2.4072,2.4076,2.4088,2.4092,2.4037,2.4037,2.4037,0,2.4232,2.4223,2.4194,2.4191,2.4182,2.4148,2.4151,2.4138,2.4112,2.4106,2.4092,2.4069,2.4051,2.4049,2.4057,2.405,2.405,2.4038,2.4074,2.4077,2.4081,2.4092,2.4096,2.404,2.404,2.4039,2.4039,0,2.426,2.4255,2.426,2.4238,2.4229,2.423,2.42,2.4195,2.4176,2.4157,2.4153,2.413,2.4113,2.4111,2.4092,2.4107,2.41,2.408,2.4055,2.409,2.4099,2.4103,2.4044,2.4043,2.4042,2.4041,0,0,2.4322,2.4285,2.4288,2.4277,2.425,2.4245,2.4244,2.4229,2.4226,2.4209,2.4208,2.4194,2.4176,2.4165,2.4143,2.4146,2.4174,2.4126,2.4125,2.4136,2.419,2.4205,2.4211,2.4159,2.416,2.416,2.4192,0,2.4354,2.4351,2.4325,2.433,2.4324,2.4292,2.4291,2.4275,2.4257,2.4249,2.4229,2.422,2.4198,2.4191,2.4192,2.4171,2.4185,2.4168,2.4157,2.4157,2.4164,2.4215,2.4231,2.4262,2.4196,2.4197,2.4197,0,2.439,2.4378,2.4382,2.4356,2.4353,2.4353,2.4337,2.4331,2.4311,2.4298,2.4287,2.4263,2.426,2.4238,2.4233,2.4223,2.4217,2.4206,2.4206,2.4204,2.4179,2.4214,2.4271,2.4276,2.4203,2.4202,2.4202,0,2.4435,2.442,2.442,2.4413,2.4382,2.4383,2.4371,2.435,2.4343,2.433,2.4325,2.4311,2.4303,2.4292,2.4266,2.4252,2.4264,2.4239,2.4253,2.4254,2.4257,2.4257,2.4313,2.4253,2.4253,2.4253,2.4253,0,2.4473,2.4477,2.4441,2.4441,2.4445,2.4415,2.4419,2.4403,2.4386,2.4383,2.4353,2.4351,2.4316,2.4309,2.4288,2.4288,2.4284,2.4274,2.4268,2.4276,2.4278,2.4271,2.4268,2.4254,2.4254,2.4254,2.4254,0,2.4524,2.45,2.4498,2.4471,2.4464,2.4468,2.4444,2.4443,2.4425,2.4421,2.4418,2.4388,2.4379,2.4352,2.4335,2.4321,2.4327,2.4316,2.4334,2.433,2.4346,2.4345,2.44,2.4406,2.4343,2.4344,2.4344,0,2.4549,2.4552,2.4525,2.4522,2.4511,2.4505,2.4498,2.4469,2.4463,2.4443,2.4444,2.4433,2.4423,2.4409,2.4386,2.4373,2.4362,2.4382,2.436,2.4369,2.4363,2.4363,2.4363,2.4387,2.4388,2.4389,2.4389,0,2.4597,2.4586,2.4578,2.4566,2.4559,2.4548,2.4535,2.4533,2.4501,2.4496,2.4487,2.448,2.4464,2.4453,2.4437,2.4423,2.4401,2.4397,2.4399,2.4408,2.4418,2.4413,2.4347,2.4395,2.4395,2.4394,2.4394,2.4394,2.4636,2.4637,2.4619,2.4611,2.4599,2.4589,2.4587,2.4569,2.4561,2.4547,2.453,2.4524,2.4505,2.4482,2.447,2.4464,2.4452,2.4455,2.4456,2.4458,2.4462,2.442,2.4461,2.446,2.446,2.446,2.446,0,2.4683,2.467,2.4663,2.4647,2.4641,2.4623,2.4608,2.4604,2.4599,2.4584,2.4575,2.4565,2.4555,2.4532,2.4519,2.4519,2.4509,2.4517,2.4516,2.4514,2.4473,2.4472,2.4526,2.4526,2.4526,2.4526,2.4526,2.4526,2.4706,2.4708,2.4694,2.469,2.4676,2.4671,2.4664,2.4654,2.4642,2.4633,2.4625,2.461,2.4592,2.4579,2.4569,2.4562,2.4559,2.4571,2.4561,2.4523,2.4517,2.4511,2.451,2.457,2.457,2.4602,2.4602,2.4603]}]]